Tracking 19638 objects as of 20-May-2019
HD Live streaming from Space Station
objects crossing your sky now

IRIDIUM 141

Track IRIDIUM 141 now!
10-day predictions
IRIDIUM 141 is classified as:


NORAD ID: 43077
Int'l Code: 2017-083H
Perigee: 783.5 km
Apogee: 786.1 km
Inclination: 86.4 °
Period: 100.4 minutes
Semi major axis: 7155 km
RCS: Unknown
Launch date: December 23, 2017
Source: United States (US)
Launch site: AIR FORCE WESTERN TEST RANGE (AFWTR)
aabbcc
Your satellite tracking list
Your tracking list is empty




NASA's NSSDC Master Catalog

Two Line Element Set (TLE):
1 43077U 17083H   19140.55774304  .00000013  00000-0 -24984-5 0  9997
2 43077  86.3936 322.1253 0001777  86.6515 273.4884 14.34218205 73713
Source of the keplerian elements: AFSPC